Location: Vihti�l�
(61.3833°N, 23.0667°E)
Time: 04:02:06
(UTC+00:00)

ALOS - Pass Details

Date: 29 November 2020
Orbit: 683 x 685 km, 97.9° (Epoch: 22 January)

Event Time Altitude Azimuth Distance (km) Brightness Sun altitude
Rises 05:20:33 0° 16° (NNE) 3,071 5.5 -11.5°
Reaches altitude 10° 05:23:12 10° 2° (N) 2,150 4.6 -11.2°
Maximum altitude 05:26:47 22° 312° (NW) 1,484 3.4 -10.8°
Drops below altitude 10° 05:30:22 10° 262° (W) 2,141 4.3 -10.4°
Enters shadow 05:31:50 - 253° (WSW) 2,631 4.9 -10.3°
